metlocid,date_time,avg_wspd,std_wspd,min_wspd,max_wspd,n_wspd,n_comments
TARM,11/1/94,,,,,0,674
TARM,12/1/94,,,,,0,2232
TARM,1/1/95,3.92986992,2.138139539,0,13.23,615,2228
TARM,2/1/95,5.354717259,3.942132052,0,24.57,2016,2016
TARM,3/1/95,4.69428316,3.726424001,0,18.53,2232,2232
TARM,4/1/95,4.740842599,3.887974838,0,17.58,2160,2160
TARM,5/1/95,5.579507171,4.61326939,0,24.11,2232,2232
TARM,6/1/95,7.272995378,4.701900239,0.05,21.23,2160,2160
TARM,7/1/95,4.9934543,3.69294106,0.02,21.42,2232,2232
TARM,8/1/95,6.470828848,4.103354487,0,21.42,2232,2232
TARM,9/1/95,5.367236115,4.036297592,0.01,19.14,2160,2160
TARM,10/1/95,4.33344086,3.380066932,0,17.76,2232,2232
TARM,11/1/95,5.486489109,3.17733265,0,19.42,2478,1195
TARM,12/1/95,4.034539036,2.266586592,0,14.67,2972,7
TARM,1/1/96,4.661449225,2.694939396,0,17.3,2974,8
TARM,2/1/96,3.90721983,2.253211463,0,11.9,2784,12
TARM,3/1/96,5.866532263,5.121844043,0,22.9,2976,38
TARM,4/1/96,6.468229173,4.680963021,0,20.7,2880,1
TARM,5/1/96,4.559744624,2.751691149,0,15.9,2976,1
TARM,6/1/96,6.020771106,4.252971736,0,21.4,2879,0
TARM,7/1/96,6.313373658,3.75165746,0,18.9,2976,0
TARM,8/1/96,6.316834679,3.806445951,0,21,2976,0
TARM,9/1/96,4.593368052,3.035800247,0,21.4,2880,3
TARM,10/1/96,4.423588712,3.397812648,0,20.6,2976,6
TARM,11/1/96,4.341284717,2.745277365,0,17.7,2880,8
TARM,12/1/96,4.242103495,2.257745918,0,12.5,2976,9
TARM,1/1/97,3.881216396,2.166003172,0,11.5,2976,22
TARM,2/1/97,3.822433034,2.895109466,0,15.7,2688,11
TARM,3/1/97,3.58578629,2.784438683,0,17.7,2976,8
TARM,4/1/97,5.017291666,3.757690214,0,23.4,2880,1
TARM,5/1/97,7.798857522,4.611971852,0.1,23.7,2976,0
TARM,6/1/97,6.748125,4.313248879,0,21.3,2880,0
TARM,7/1/97,5.680107524,3.606010959,0,22.3,2976,1
TARM,8/1/97,6.376108876,4.789899438,0,23.2,2976,0
TARM,9/1/97,5.791458335,3.964767112,0,17.7,2880,0
TARM,10/1/97,5.880981184,4.420922889,0,22.1,2976,4
TARM,11/1/97,6.308030722,3.914739035,0,19.8,2864,4
TARM,12/1/97,4.266935488,2.164834809,0,10,2976,8
TARM,1/1/98,3.930678764,2.280994113,0,13.1,2976,6
TARM,2/1/98,4.940699402,3.826258727,0,19.6,2688,7
TARM,3/1/98,4.154603492,2.74239648,0,13.1,2976,10
TARM,4/1/98,5.856319451,4.097021729,0,26.3,2880,0
TARM,5/1/98,6.487432793,4.175588516,0,19.8,2976,0
TARM,6/1/98,6.937673616,4.173059137,0.1,24.2,2880,0
TARM,7/1/98,5.860147851,3.979037236,0,24.8,2976,0
TARM,8/1/98,6.070329297,5.033052771,0,29.9,2976,0
TARM,9/1/98,4.295069445,3.365559685,0,20.4,2880,3
TARM,10/1/98,5.205040324,4.137702214,0,20.5,2976,8
TARM,11/1/98,4.256805557,2.474633143,0,13.6,2880,7
TARM,12/1/98,5.226276878,3.052509925,0,16.1,2976,7
TARM,1/1/99,4.24452285,2.571162033,0,17.7,2976,5
TARM,2/1/99,3.388802079,2.398473094,0,13.7,2688,10
TARM,3/1/99,4.278091395,2.526931343,0,16.9,2976,3
TARM,4/1/99,4.992777775,2.895250679,0,15.7,2880,1
TARM,5/1/99,6.088138446,2.926662789,0,20.7,2976,0
TARM,6/1/99,5.653993054,3.683196641,0,19.4,2880,2
TARM,7/1/99,6.851579295,4.280046042,0.1,22.3,2976,0
TARM,8/1/99,5.868918016,2.924045492,0,18.5,2976,0
TARM,9/1/99,5.533784725,3.693113992,0,17.5,2880,0
TARM,10/1/99,5.042909946,3.837315696,0,22.1,2976,1
TARM,11/1/99,4.901041664,2.902908244,0,15.8,2880,1
TARM,12/1/99,4.424932796,2.535181032,0,14.2,2976,3
TARM,1/1/00,4.207762097,2.365968152,0,12.8,2976,1
TARM,2/1/00,4.951939653,3.302006138,0,17.2,2784,6
TARM,3/1/00,4.540154576,3.37214949,0,19.2,2976,2
TARM,4/1/00,5.123729407,3.048927999,0.1,19.8,2853,27
TARM,5/1/00,4.815801969,3.341917671,0.1,20.1,2949,27
TARM,6/1/00,4.671736107,3.437213308,0,21.4,2880,1
TARM,7/1/00,7.384375,4.741687229,0,25,2976,0
TARM,8/1/00,6.829737907,4.213493266,0,21.2,2976,2
TARM,9/1/00,7.30166667,5.514499888,0.2,30.8,2880,0
TARM,10/1/00,3.082291666,2.717548129,0,18.5,2976,5
TARM,11/1/00,5.497117055,3.143505722,0,20.8,2879,1
TARM,12/1/00,4.319489249,2.033786029,0,9.3,2976,1
TARM,1/1/01,4.5921441,2.860440942,0,16.8,2304,47
TARM,2/1/01,4.091443451,2.713825111,0,17.4,2688,3
TARM,3/1/01,3.818044355,3.517503938,0,21.2,2976,2
TARM,4/1/01,5.94170139,4.107114848,0,23.3,2880,1
TARM,5/1/01,6.783131716,4.551003699,0.1,21.6,2976,0
TARM,6/1/01,6.64173611,4.257240051,0.1,24.2,2880,0
TARM,7/1/01,6.566834681,3.624046511,0.2,21.6,2976,0
TARM,8/1/01,4.787869622,3.111259688,0,21.4,2976,1
TARM,9/1/01,5.552638893,3.637146739,0,19.5,2880,2
TARM,10/1/01,4.741431445,3.494458585,0,19.7,2976,2
TARM,11/1/01,4.721518103,2.819815327,0,14.2,2872,10
TARM,12/1/01,5.011928764,3.653325256,0,22.7,2976,9
TARM,1/1/02,5.325537632,3.978164731,0,21.3,2976,22
TARM,2/1/02,4.215773806,2.378948051,0,15,2688,9
TARM,3/1/02,5.062634411,3.393192643,0,19,2976,4
TARM,4/1/02,5.250972221,3.566945092,0.1,22.8,2880,0
TARM,5/1/02,5.886357527,3.597465319,0.1,19.4,2976,0
TARM,6/1/02,4.78423611,3.53160908,0.1,20.8,2880,0
TARM,7/1/02,5.73665995,3.226037475,0.1,19.1,2976,0
TARM,8/1/02,5.607325268,3.701210354,0,20.7,2976,1
TARM,9/1/02,5.142326389,3.484238832,0,16.9,2880,4
TARM,10/1/02,4.142775542,2.856987001,0,19.9,2976,10
TARM,11/1/02,3.967139176,2.93915562,0,16.5,1552,1330
TARM,12/1/02,4.738467428,2.345843383,0,14.3,2610,427
TARM,1/1/03,3.957291666,2.15553864,0,11.7,2976,108
TARM,2/1/03,3.735565478,2.676604726,0,15.7,2688,199
TARM,3/1/03,4.228166439,3.325052881,0,19.2,2187,918
TARM,4/1/03,,,,,0,2880
TARM,5/1/03,,,,,0,2976
TARM,6/1/03,,,,,0,2880
TARM,7/1/03,,,,,0,2976
TARM,8/1/03,,,,,0,2976
TARM,9/1/03,,,,,0,2880
TARM,10/1/03,,,,,0,2976
TARM,11/1/03,3.837117116,2.191052955,0,11.3,1110,1785
TARM,12/1/03,4.545228491,2.97985913,0,22.2,2976,23
TARM,1/1/04,3.793783603,2.231967518,0,13.5,2976,22
TARM,2/1/04,3.074568965,1.930930927,0,8.9,2784,29
TARM,3/1/04,3.837298389,2.746997746,0,19.1,2976,30
TARM,4/1/04,5.548159721,3.280235969,0,18.9,2880,1
TARM,5/1/04,6.247278226,3.897371578,0.1,25.7,2976,0
TARM,6/1/04,7.393645847,5.497592837,0.1,27.8,2880,0
TARM,7/1/04,5.594892472,4.036026102,0.1,21.4,2976,0
TARM,8/1/04,7.16965726,5.46411395,0.1,30.8,2976,21
TARM,9/1/04,5.318993057,4.126221918,0,22.2,2880,401
TARM,10/1/04,4.492103491,3.3408983,0,17.8,2976,537
TARM,11/1/04,5.420416669,3.049283713,0,16.4,2880,3
TARM,12/1/04,4.189583334,2.525651737,0,14.8,2976,27
TARM,1/1/05,3.879032256,2.330563574,0,15.4,2976,19
TARM,2/1/05,3.649851191,2.230418658,0,11,2688,22
TARM,3/1/05,4.729334677,2.655859486,0,17.8,2976,16
TARM,4/1/05,4.353958335,2.88469359,0,16.7,2880,1
TARM,5/1/05,6.871740587,4.519195042,0.2,23.3,2976,0
TARM,6/1/05,6.202152782,5.06624291,0,23.6,2880,2
TARM,7/1/05,6.267674732,4.620603854,0,30.5,2976,1
TARM,8/1/05,5.969791668,4.670683628,0,24.3,2976,1
TARM,9/1/05,6.104756948,3.906859552,0,25.1,2880,7
TARM,10/1/05,5.963138443,4.230891844,0,23.2,2976,3
TARM,11/1/05,4.876354161,2.562372315,0,13.6,2880,6
TARM,12/1/05,4.55873656,2.715167038,0,16.8,2976,13
TARM,1/1/06,3.893447581,2.047079681,0,11.2,2976,15
TARM,2/1/06,3.705096723,2.247004385,0,12,2688,17
TARM,3/1/06,5.07993952,3.586526255,0,24.6,2976,1
TARM,4/1/06,5.042673612,3.207460556,0.1,19.3,2880,0
TARM,5/1/06,5.785080649,3.99271512,0,20.4,2976,1
TARM,6/1/06,6.645833333,3.834020309,0.2,20.7,2880,0
TARM,7/1/06,5.195866935,3.669632774,0,21.5,2976,1
TARM,8/1/06,6.643716395,4.173751611,0,19.3,2976,4
TARM,9/1/06,5.782465277,4.321930653,0,19.7,2880,4
TARM,10/1/06,3.438877688,2.976684289,0,15.7,2976,10
TARM,11/1/06,4.107326391,2.630651046,0,13,2880,24
TARM,12/1/06,1.725724883,2.393404879,0,8.7,2966,2804
TARM,1/1/07,2.495628782,2.826390644,0,12.9,2974,1206
TARM,2/1/07,3.847805061,2.382616541,0,13.1,2688,12
TARM,3/1/07,4.494422039,3.67555026,0,19.5,2976,3
TARM,4/1/07,6.395104169,4.234156296,0.1,22.7,2880,0
TARM,5/1/07,7.044455647,4.629992418,0.1,27.2,2976,0
TARM,6/1/07,6.671041672,4.003493827,0,21.5,2880,1
TARM,7/1/07,6.341565861,3.634090147,0.1,21.2,2976,0
TARM,8/1/07,6.810450269,4.008388896,0.3,25.9,2976,0
TARM,9/1/07,6.632986107,4.164249597,0,26,2880,1
TARM,10/1/07,4.855510759,4.049066698,0,18.7,2976,18
TARM,11/1/07,4.311215279,2.896031456,0,15.5,2880,18
TARM,12/1/07,4.442775538,1.980588546,0,12.4,2976,3
TARM,1/1/08,3.710114247,2.069701849,0,11.5,2976,8
TARM,2/1/08,4.465158046,2.686020041,0,14.9,2784,8
TARM,3/1/08,4.403427422,3.726706935,0,19.9,2976,8
TARM,4/1/08,5.397534722,3.432185921,0.1,22.8,2880,0
TARM,5/1/08,5.648454303,3.3075779,0.2,18.6,2976,0
TARM,6/1/08,7.063055559,4.56115061,0.1,29.9,2880,0
TARM,7/1/08,6.133064517,4.200014659,0.2,23,2976,0
TARM,8/1/08,5.333837368,3.495040553,0.2,20,2976,0
TARM,9/1/08,8.094375002,4.311003107,0.2,19.9,2880,0
TARM,10/1/08,4.579065863,3.390363304,0,16.4,2976,12
TARM,11/1/08,4.67034722,3.297076689,0,16.9,2880,6
TARM,12/1/08,4.607829303,2.430036667,0,14.3,2976,2
TARM,1/1/09,4.021236558,2.398504986,0,13.3,2976,14
TARM,2/1/09,3.553311008,2.487680886,0,14.9,2688,19
TARM,3/1/09,3.980611557,2.868907873,0,18.4,2976,9
TARM,4/1/09,6.455277776,3.979540403,0,20.2,2880,2
TARM,5/1/09,5.611189517,3.438526034,0,18.5,2976,2
TARM,6/1/09,6.017604171,3.288120949,0.1,18.7,2880,0
TARM,7/1/09,6.50483871,4.384527818,0,20.9,2976,3
TARM,8/1/09,5.851108871,4.428307579,0.1,24.5,2976,0
TARM,9/1/09,6.731145836,4.474169482,0,23.1,2880,5
TARM,10/1/09,4.069468727,3.291622026,0,20.5,2974,22
TARM,11/1/09,4.531006944,2.852166327,0,15.9,2880,11
TARM,12/1/09,4.100705641,2.206431279,0,10.9,2976,13
TARM,1/1/10,3.843615595,2.23596867,0,13.5,2976,16
TARM,2/1/10,4.276041667,3.062637079,0,19.2,2688,28
TARM,3/1/10,3.209643817,2.523453234,0,15.6,2976,20
TARM,4/1/10,5.797500003,3.366549902,0.1,18.4,2880,0
TARM,5/1/10,5.127452959,2.944152852,0,18.2,2976,1
TARM,6/1/10,5.596597225,3.072255184,0.1,17.4,2880,0
TARM,7/1/10,6.446518876,3.84786494,0.1,23.8,2887,89
TARM,8/1/10,,,,,0,2976
TARM,9/1/10,4.164663023,3.132193145,0,15.1,1647,1237
TARM,10/1/10,4.491498658,3.564066938,0,24.2,2976,5
TARM,11/1/10,5.403966602,2.967620533,0,17.4,2874,14
TARM,12/1/10,4.292708332,2.634647734,0,20.2,2976,10
TARM,1/1/11,3.611122394,1.897260327,0,8.2,1969,6
TARM,1/1/12,3.887648227,2.148717936,0,9.5,1012,4
TARM,2/1/12,4.742744258,3.51485189,0,17.3,2784,12
TARM,3/1/12,5.014751348,3.238568129,0,15,2976,2
TARM,4/1/12,5.722708334,3.53557197,0.1,21.3,2880,0
TARM,5/1/12,8.289146505,5.035965427,0.1,22.3,2976,0
TARM,6/1/12,6.185243058,4.431067609,0.1,22.7,2880,0
TARM,7/1/12,5.232862904,3.202433217,0.1,16.9,2976,0
TARM,8/1/12,6.829065859,5.180274022,0.1,26.2,2976,0
TARM,9/1/12,5.621319447,3.581457743,0,16.2,2880,1
TARM,10/1/12,4.456283602,3.425941693,0,16.2,2976,6
TARM,11/1/12,4.007467871,2.385449974,0,15.2,2879,1
TARM,12/1/12,3.829939519,2.116364604,0,11.4,2976,9
TARM,1/1/13,3.886861559,2.318959222,0,12.4,2976,10
TARM,2/1/13,3.728534225,2.357782246,0,12.1,2688,6
TARM,3/1/13,4.048823923,2.801151978,0,18.6,2976,8
TARM,4/1/13,5.784548612,3.152040667,0.1,17.4,2880,0
TARM,5/1/13,6.335349458,3.97445376,0,20.6,2976,3
TARM,6/1/13,5.112465282,3.05991363,0,15.5,2880,1
TARM,7/1/13,5.512130375,3.533564969,0.1,21.2,2976,0
TARM,8/1/13,6.371337366,4.303538713,0.1,27.6,2976,0
TARM,9/1/13,6.331527779,4.011714232,0,21.2,2880,1
TARM,10/1/13,4.143481185,3.161105733,0,18.1,2976,7
TARM,11/1/13,4.731805557,3.037853503,0,16.2,2880,18
TARM,12/1/13,4.559744624,2.492791451,0,14.4,2976,8
TARM,1/1/14,3.968410615,2.566004469,0,14.3,2976,2275
TARM,2/1/14,5.151875,3.198691195,0,15.67,2688,2688
TARM,3/1/14,5.014714382,3.409658253,0,15.75,2976,2976
TARM,4/1/14,6.033819442,4.514788553,0.04,22.39,2880,2880
TARM,5/1/14,6.004351484,4.355413897,0.02,20.6,2976,2976
TARM,6/1/14,5.463805558,3.152746467,0.02,19.61,2880,2880
TARM,7/1/14,5.205709008,3.605725477,0.21,22.62,2976,2976
TARM,8/1/14,7.236199597,4.775353855,0,20.75,2976,2976
TARM,9/1/14,6.443340274,3.51570404,0,18.48,2880,2880
TARM,10/1/14,5.954042342,3.915242489,0,22.53,2976,2976
TARM,11/1/14,3.7179375,2.184300605,0,13.21,2880,2880
TARM,12/1/14,4.196593812,2.081292256,0,9.67,2974,2974
TARM,1/1/15,4.112533603,2.428533689,0,17,2976,2976
TARM,2/1/15,4.874605661,2.983247034,0,16.74,2688,2688
TARM,3/1/15,3.726626344,2.307351145,0,15.97,2976,2976
TARM,4/1/15,4.792431399,3.250250601,0.04,17.41,2879,2879
TARM,5/1/15,5.078645831,3.258630302,0.04,22.71,2976,2976
TARM,6/1/15,6.661895832,3.765595781,0.06,24.68,2880,2880
TARM,7/1/15,6.342755372,4.086219891,0,21.74,2976,2976
TARM,8/1/15,6.801196234,4.596811522,0.06,25.55,2976,2976
TARM,9/1/15,5.877267366,4.314763861,0.07,21.19,2880,2880
TARM,10/1/15,5.947261423,4.191238192,0.01,19.59,2976,2976
TARM,11/1/15,4.645565977,2.753685757,0,15.33,2880,2880
TARM,12/1/15,5.003135931,2.735265166,0,16.16,2972,78
TARM,1/1/16,4.378047717,2.579238268,0,16.33,2976,0
TARM,2/1/16,4.533193249,2.63753325,0,17.37,2784,0
TARM,3/1/16,4.555295698,2.990296357,0,19.77,2976,0
TARM,4/1/16,5.299218751,2.777701948,0,15.36,2880,0
TARM,5/1/16,6.695944219,4.636681229,0,28.42,2976,0
TARM,6/1/16,4.728989579,3.132878814,0.01,18.55,2880,0
TARM,7/1/16,4.993551754,3.346271622,0.11,17.64,2976,0
TARM,8/1/16,6.178205649,4.297700792,0.05,24.38,2976,0
TARM,9/1/16,5.385597227,3.634113244,0.11,19.35,2880,0
TARM,10/1/16,3.895483876,2.965026324,0,15.57,2976,0
TARM,11/1/16,4.800524303,3.720901375,0.01,17.14,2880,0
TARM,12/1/16,4.30867855,2.432819948,0,16.02,2974,0
TARM,1/1/17,4.006045027,2.357140665,0,13.89,2976,0
TARM,2/1/17,4.387518601,2.593119105,0,17.45,2688,0
TARM,3/1/17,4.107920024,3.006861882,0,15.28,2976,0
TARM,4/1/17,6.465263891,2.800647228,0.1,17.52,2880,0
TARM,5/1/17,6.882311837,4.195743002,0.09,32.05,2976,0
TARM,6/1/17,6.201368057,3.731013413,0.2,21.17,2880,0
TARM,7/1/17,6.5165457,3.943786435,0.18,22.32,2976,0
TARM,8/1/17,6.851740593,4.059686389,0.06,26.45,2976,0
TARM,9/1/17,5.676465276,3.689101549,0.03,19.12,2880,0
TARM,10/1/17,5.145971103,3.58952659,0,18.48,2976,0
TARM,11/1/17,4.645514246,3.057704021,0,16.23,2878,0
TARM,12/1/17,4.382422719,2.356822406,0,15.03,2976,0
TARM,1/1/18,4.055100805,2.330973291,0,13.25,2976,0
TARM,2/1/18,3.6636942,2.791258677,0,17.09,2688,0
TARM,3/1/18,5.02134073,3.253457495,0,20.06,2976,0
TARM,4/1/18,7.514701392,5.040904594,0.09,25.68,2880,0
TARM,5/1/18,5.760487234,2.972254022,0.02,18.84,2976,0
TARM,6/1/18,5.638270837,3.558770728,0.01,21.87,2880,0
TARM,7/1/18,7.68717406,5.383928677,0.2,29.66,2976,0
TARM,8/1/18,6.086344086,4.025425199,0.01,21.32,2976,0
TARM,9/1/18,6.576666665,5.188116345,0.05,24.28,2880,0
TARM,10/1/18,6.168178762,4.429880662,0,19.78,2976,0
TARM,11/1/18,4.620743059,2.909386819,0,18.46,2880,0
TARM,12/1/18,4.268823137,2.60257593,0.02,16.24,2974,0
TARM,1/1/19,4.673373655,2.92906091,0,17.06,2976,0
TARM,2/1/19,4.70164063,2.736528851,0.01,16.56,2688,0
TARM,3/1/19,4.141804432,3.190903017,0,17.97,2976,0
TARM,4/1/19,6.127090282,3.35713257,0.08,18.17,2880,0
TARM,5/1/19,6.344274187,3.66936096,0,19.2,2976,0
TARM,6/1/19,7.648187501,4.837729728,0.1,24.17,2880,0
TARM,7/1/19,6.594149866,5.182396872,0.1,26.16,2976,0
TARM,8/1/19,6.324660619,3.774070711,0.17,19.58,2976,0
TARM,9/1/19,6.254624997,3.818685965,0.29,20.56,2880,0
TARM,10/1/19,4.473575272,3.338480776,0,16.81,2976,0
TARM,11/1/19,4.69151389,2.460426624,0,14.47,2880,0
TARM,12/1/19,4.360165935,2.397691817,0,12.46,2971,0
TARM,1/1/20,3.922265459,2.055951978,0,13.98,2976,0
TARM,2/1/20,4.187186429,2.822954468,0,15.33,2784,0
TARM,3/1/20,5.340610223,4.280269713,0,19.81,2976,0
TARM,4/1/20,6.773764929,4.185550111,0.055,26.35,2880,0
TARM,5/1/20,5.680921704,2.964780533,0.227,16.94,2976,0
TARM,6/1/20,6.859638539,4.698494632,0.114,21.07,2880,0
TARM,7/1/20,5.924632062,4.628182516,0.015,22.41,2976,0
TARM,8/1/20,5.714368951,4.424834249,0,24.66,2976,0
TARM,9/1/20,5.793447917,3.896555734,0.223,19.73,2880,0
TARM,10/1/20,5.494875336,3.632789797,0.019,23.11,2976,0
TARM,11/1/20,3.854173957,2.132180433,0,12.46,2880,0
TARM,12/1/20,4.377344424,2.356109686,0,12.48,2976,0
TARM,1/1/21,4.206554768,2.579691742,0,17.9,2976,0
TARM,2/1/21,4.46398884,3.124062685,0,15.93,2688,0
TARM,3/1/21,4.961689177,3.618396117,0,18.42,2976,0
TARM,4/1/21,5.025117356,2.958485521,0,17.13,2880,0
TARM,5/1/21,6.681377013,3.88144647,0.118,18.64,2976,0
TARM,6/1/21,6.679791325,4.588050533,0.126,33.08,2880,0
TARM,7/1/21,6.175889786,3.758647514,0.067,21.18,2976,0
TARM,8/1/21,6.115071574,5.17346564,0.075,26.95,2976,0
TARM,9/1/21,5.868292013,3.740970285,0,19.13,2880,0
TARM,10/1/21,6.745982861,4.32708339,0,21.06,2976,0
TARM,11/1/21,4.410231948,2.875668731,0,17.92,2880,0
TARM,12/1/21,4.633157736,2.160687559,0,11.8,2967,0
TARM,1/1/22,4.276490254,2.508337403,0,13.02,2976,0
TARM,2/1/22,4.187042784,2.553437514,0,16.53,2688,0
TARM,3/1/22,5.967485214,4.55538518,0,23.19,2976,0
TARM,4/1/22,5.435778467,3.740133918,0,20.41,2880,0
TARM,5/1/22,7.505038976,4.392160062,0.02,20.93,2976,0
TARM,6/1/22,5.338958337,3.40269441,0,19.71,2880,0
TARM,7/1/22,8.521223454,4.679826842,0.002,27.52,2976,0
TARM,8/1/22,6.243222108,4.079068056,0.162,21.31,2976,0
TARM,9/1/22,5.95282292,3.997470967,0,20.24,2880,0
TARM,10/1/22,4.892363239,3.744489666,0,26.75,2976,0
TARM,11/1/22,4.140676389,2.617835018,0,18.2,2880,0
TARM,12/1/22,4.112796658,2.398781103,0,15.14,1854,0